Regional Weather Roundup
Issued by NWS

Home | Current Version | Previous Version | Graphics & Text | Print | Product List | Glossary On
Versions: 1 2 3 4 5 6 7 8 9 10 11 12 13 14 15 16 17 18 19 20 21 22 23 24 25 26 27 28 29 30 31 32 33 34 35 36 37 38 39 40 41 42 43 44 45 46 47 48 49 50
000
ASUS43 KLOT 251308
RWRIL

ILLINOIS REGIONAL WEATHER ROUNDUP
NATIONAL WEATHER SERVICE CHICAGO/ROMEOVILLE IL
800 AM CDT WED APR 25 2018

NOTE: "FAIR" INDICATES FEW OR NO CLOUDS BELOW 12,000 FEET WITH NO
SIGNIFICANT WEATHER AND/OR OBSTRUCTIONS TO VISIBILITY.

* THESE STATIONS ARE NOT UNDER NWS QUALITY CONTROL. THEY ALSO MAY NOT
  REPORT WEATHER SUCH AS PRECIPITATION OR FOG.

ILZ001-002-007-009-015-016-024-251400-
NORTHWEST ILLINOIS

CITY           SKY/WX    TMP DP  RH WIND       PRES   REMARKS
MOLINE         FAIR      50  33  52 NE12      30.14R
STERLING*      FAIR      48  34  58 NE10      30.14R
SAVANNA*       FAIR      48  33  55 NE9       30.16R
$$

ILZ003-004-008-010-011-017-018-251400-
NORTH CENTRAL ILLINOIS

CITY           SKY/WX    TMP DP  RH WIND       PRES   REMARKS
ROCKFORD       FAIR      46  32  58 NE15      30.14S
FREEPORT*      FAIR      44  34  66 NE10      30.16R
ROCHELLE*      FAIR      45  35  68 NE18G24   30.13R
DE KALB*       FAIR      44  33  65 NE17G24   30.12S
PERU*          FAIR      48  35  61 NE17      30.13R
$$

ILZ005-006-012>014-019>023-251400-
NORTHEAST ILLINOIS

CITY           SKY/WX    TMP DP  RH WIND       PRES   REMARKS
CHICAGO-OHARE  FAIR      45  33  63 N20       30.10R
CHICAGO-MIDWAY FAIR      46  35  65 N20       30.10R
AURORA         FAIR      46  35  65 NE15G24   30.10R
LANSING*       FAIR      43  38  82 N12G21    30.10R
JOLIET*        FAIR      48  36  61 NE16G22   30.10R
WAUKEGAN       FAIR      44  33  65 N10       30.11R
DUPAGE AIRPORT FAIR      44  35  70 N15       30.10R
KANKAKEE*      FAIR      46  34  64 NE12      30.09S
WHEELING       FAIR      45  33  63 N16G25    30.13R
MORRIS*        FAIR      46  34  62 N6        30.10R
ROMEOVILLE*    FAIR      46  35  64 NE17      30.09S
NORTHERLY ISL    N/A     42  35  76 N18         N/A
$$

LMZ740>746-251400-
SOUTHERN LAKE MICHIGAN

STATION/POSITION SKY/WX   TEMP    WIND        PRES    VSBY  WAVE
                          AIR SEA DIR/SP/G                  HT/PER
                          (F)     (DEG/KT/KT) (MB)    (MI)  (FT/S)
HARRISON CRIB              40     350/ 20/ 22   N/A
BURNHAM HARBOR             42     350/ 15/ 23   N/A
CALUMET HARBOR             41     330/ 15/ 21 1018.8R
BURNS HARBOR               40     360/ 15/ 19 1019.3R
MICHIGAN CITY              40     340/ 23/ 25   N/A
ST. JOSEPH                 40 42   10/ 16/ 19 1019.2          4/ 7
$$

ILZ025>027-034>036-040-047-049-050-058-095>099-251400-
WEST-CENTRAL ILLINOIS

CITY           SKY/WX    TMP DP  RH WIND       PRES   REMARKS
QUINCY         CLOUDY    52  44  74 NE16G23   30.07F
MACOMB*        PTSUNNY   47  35  61 NE16      30.14R
JACKSONVILLE*  CLOUDY    50  47  87 NE14      30.08R FOG
PITTSFIELD*    PTSUNNY   54  44  68 N8        30.08S
$$

ILZ028>032-037-038-041>044-048-051>054-059>061-251400-
CENTRAL ILLINOIS

CITY           SKY/WX    TMP DP  RH WIND       PRES   REMARKS
PONTIAC        FAIR      48  36  62 N16       30.11R
BLOOMINGTON    FAIR      46  37  71 N17       30.09R
DECATUR        FAIR      49  42  77 NE14      30.07R
PEORIA         FAIR      50  34  54 NE13      30.12R
LACON*         FAIR      47  33  60 NE6       30.12R
LINCOLN*       FAIR      48  41  74 NE15      30.09R
SPRINGFIELD    FAIR      52  48  86 NE9       30.08R FOG
TAYLORVILLE    FAIR      50  48  92 NE14      30.07R FOG
$$

ILZ033-039-045-046-055>057-062-063-251400-
EAST-CENTRAL ILLINOIS

CITY           SKY/WX    TMP DP  RH WIND       PRES   REMARKS
CHAMPAIGN      FAIR      48  41  76 N15       30.06R
DANVILLE*      FAIR      45  40  84 N14       30.03R
RANTOUL*       FAIR      47  39  72 N16G24    30.06R
MATTOON        FAIR      49  48  97 N12       30.04R FOG
PARIS*         FOG       47  47 100 N8        30.05R VSB 1/2
$$

ILZ079-100>102-251400-
SOUTHWEST ILLINOIS

CITY           SKY/WX    TMP DP  RH WIND       PRES   REMARKS
ALTON          PTSUNNY   54  45  71 N12       30.03R
BELLEVILLE     SUNNY     55  44  66 N9        30.02R
CAHOKIA*       MOSUNNY   54  48  80 CALM      30.04R
SPARTA*        SUNNY     52  49  89 NW3       30.03F
$$

ILZ064>066-069>071-074>076-080>082-084>086-088>090-092>094-251400-
SOUTH-CENTRAL ILLINOIS

CITY           SKY/WX    TMP DP  RH WIND       PRES   REMARKS
CARBONDALE     FAIR      53  51  93 W3        30.02R
CAIRO*         FAIR      54  54 100 CALM      30.02R FOG
EFFINGHAM*     FAIR      52  52 100 N5        30.06R FOG
MARION         SUNNY     45  45 100 CALM      30.03R
MT. VERNON     FAIR      52  52 100 NE6       30.04R FOG
CENTRALIA*     SUNNY     53  53 100 NE3       30.03R FOG
SALEM*         FAIR      54  53  95 NE5       30.04S FOG
METROPOLIS*    FAIR      55  55  99 CALM      30.02R
$$

ILZ067-068-072-073-078-083-087-091-251400-
SOUTHEAST ILLINOIS

CITY           SKY/WX    TMP DP  RH WIND       PRES   REMARKS
LAWRENCEVILLE  FAIR      54  52  93 MISG      30.03R FOG
FLORA*         FAIR      54  53  95 N3        30.04S FOG
FAIRFIELD*     FAIR      54  53  95 N5        30.03R FOG
HARRISBURG*    FAIR      53  53 100 CALM      30.04R FOG
ROBINSON*      FAIR      51  51  97 N9        30.04R FOG
CARMI*         FAIR      53  53 100 N5        30.02S FOG
$$

ABBREVIATIONS USED IN REMARKS
   TC - TEMPERATURE IN CELSIUS
  WCI - WIND CHILL INDEX
   HX - HEAT INDEX
  VSB - VISIBILITY
$$





USA.gov is the U.S. government's official web portal to all federal, state and local government web resources and services.